Location: Pitton
(51.0667°N, 1.7000°W)
Time: 09:14:06
(UTC+00:00)

Cosmos 1624 Rocket - Pass Details

Date: 17 September 2019
Orbit: 757 x 784 km, 74.0° (Epoch: 19 October)

Event Time Altitude Azimuth Distance (km) Brightness Sun altitude
Rises 20:37:00 0° 202° (SSW) 3,207 7.1 -21.5°
Reaches altitude 10° 20:39:21 10° 203° (SSW) 2,284 6.3 -21.8°
Maximum altitude 20:44:32 90° 267° (W) 765 3.9 -22.4°
Drops below altitude 10° 20:49:46 10° 25° (NNE) 2,299 6.6 -23.1°
Sets 20:52:09 0° 25° (NNE) 3,230 7.4 -23.4°
